Location: Unspecified
(0.0000°N, 0.0000°E)
Time: 14:07:04
(UTC+00:00)

STARLINK-35278 - Pass Details

Date: 20 February 2026
Orbit: 474 x 476 km, 53.2° (Epoch: 14 March)

Event Time Altitude Azimuth Distance (km) Brightness Sun altitude
Rises 20:18:43 0° 229° (SW) 2,514 6.9 -30.7°
Reaches altitude 10° 20:21:01 10° 238° (WSW) 1,634 5.8 -31.2°
Enters shadow 20:22:05 17° 248° (WSW) 1,260 5.2 -31.5°
